[[{"header":{"parameterUnit":"m.s-1","parameterCategory":1,"la1":30.2991,"la2":30.254,"lo1":-89.0895,"lo2":-89.0444,"dy":0.0017,"dx":0.0017,"nx":28,"ny":28,"refTime":"2023-05-01T21:00:00:Z","depth":0,"parameterNumber":2,"parameterNumberName":"U-component_of_WINDS"},"data":[0,0,0,0,0,0,0,0,0,0,0,0,0,0,0,0,0,0,0,0,0,0,0,0,0,0,0,0,0,0,0,0,0,0,0,0,0,0,0,0,0,0,0,0,0,0,0,0,0,0,0,0,0,0,0,0,0,0,0.8396,0.8397,0,0.8408,0.8408,0.8408,0.8342,0.834,0.8338,0.8336,0.8351,0.8353,0.8355,0,0,0,0,0,0,0,0,0,0,0,0,0,0.8322,0.8323,0.8396,0.8397,0.8397,0.8408,0.8408,0.8408,0.8342,0.834,0.8338,0.8335,0.835,0.8353,0.8355,0,0,0,0,0,0,0,0,0,0,0,0,0,0.8346,0.8324,0.8396,0.8365,0.8362,0.8408,0.8408,0.8408,0.8343,0.834,0.8337,0.8334,0.8349,0.8352,0.8356,0.8433,0,0,0.8366,0.8367,0,0,0,0,0,0,0,0,0.8345,0.8349,0.837,0.8367,0.8364,0.837,0.8387,0.8416,0.8343,0.835,0.8336,0.8333,0.836,0.8362,0.8371,0.8433,0.8434,0.8366,0.8368,0.8369,0.837,0,0,0,0,0,0,0,0.8343,0.8348,0.8401,0.837,0.8367,0.8352,0.8352,0.8392,0.8371,0.8349,0.8345,0.8347,0.8358,0.8368,0.837,0.8434,0.8366,0.8369,0.8371,0.8372,0.8564,0.8567,0,0,0,0,0,0,0.8345,0.8347,0.8401,0.8401,0.8347,0.8355,0.8356,0.8371,0.837,0.8367,0.8349,0.8344,0.8363,0.8367,0.8371,0.8463,0.8369,0.8372,0.8374,0.8561,0.8564,0.8568,0,0,0,0,0,0,0.8344,0.835,0.84,0.8373,0.8378,0.836,0.8378,0.8373,0.8383,0.837,0.8366,0.8363,0.8361,0.8366,0.8418,0.8462,0.8374,0.8377,0.8557,0.8562,0.8566,0.8646,0,0,0,0,0,0,0.8342,0.835,0.8378,0.8374,0.838,0.8446,0.838,0.8375,0.8388,0.8381,0.8382,0.8379,0.8359,0.8414,0.8421,0.8465,0.8379,0.8553,0.8559,0.8565,0.864,0.8653,0.8665,0,0,0,0,0,0.8339,0.84,0.838,0.8387,0.8414,0.8449,0.8452,0.8428,0.8392,0.8421,0.8413,0.8379,0.8456,0.842,0.8428,0.8473,0.855,0.8557,0.8564,0.8634,0.8651,0.8664,0,0,0,0,0,0,0.8411,0.8399,0.8376,0.8437,0.8445,0.8438,0.8473,0.8445,0.8464,0.8456,0.8426,0.8427,0.8485,0.8484,0.8443,0.8549,0.8497,0.8506,0.8547,0.8563,0.8575,0.8575,0.8382,0,0,0,0,0,0.8434,0.8462,0.845,0.8506,0.851,0.8492,0.8506,0.8486,0.8493,0.8496,0.8491,0.85,0.8527,0.8544,0.8568,0.8639,0.864,0.8674,0.8687,0.8697,0.8706,0.8746,0.8762,0.8591,0.8591,0.8591,0,0,0.8481,0.8478,0.8498,0.852,0.8523,0.8555,0.8494,0.853,0.8553,0.8501,0.855,0.8548,0.8556,0.8619,0.8646,0.862,0.8754,0.8706,0.8715,0.8718,0.8755,0.8772,0.8786,0.8596,0.8595,0.8594,0,0,0.8584,0.8584,0.8631,0.8636,0.8641,0.8629,0.864,0.8638,0.8634,0.8683,0.8645,0.8674,0.8719,0.8727,0.8737,0.8845,0.8816,0.8854,0.892,0.8959,0.8973,0.8985,0.9026,0.9041,0.8862,0.8862,0.8862,0,0.8643,0.8687,0.8659,0.8697,0.8709,0.8663,0.8712,0.8718,0.8732,0.8742,0.8712,0.8769,0.8771,0.8836,0.8863,0.8872,0.8886,0.8854,0.8973,0.8985,0.8995,0.9034,0.9049,0.8867,0.8866,0.8866,0.8865,0,0.8761,0.8792,0.883,0.8844,0.886,0.8904,0.8883,0.8903,0.8883,0.8874,0.8926,0.8927,0.895,0.8964,0.8944,0.9028,0.9012,0.8978,0.8925,0.9017,0.9053,0.9067,0.8874,0.8872,0.8871,0.8869,0,0,0.8908,0.8907,0.8921,0.8928,0.8932,0.8957,0.9,0.9022,0.9041,0.9053,0.9089,0.9129,0.9099,0.911,0.9091,0.9126,0.9215,0.9088,0.9088,0.9114,0.931,0.9336,0.9354,0.9195,0.9198,0.92,0.931,0,0.901,0.9082,0.9058,0.9131,0.9162,0.912,0.9157,0.9165,0.9158,0.9184,0.9177,0.9207,0.9163,0.9171,0.9203,0.9197,0.9254,0.9189,0.9231,0.9233,0.9232,0.9372,0.94,0.9503,0.9324,0.9326,0.9328,0,0.9139,0.9156,0.9232,0.9233,0.9245,0.9279,0.9299,0.9324,0.9332,0.9325,0.9339,0.9314,0.9358,0.9305,0.9366,0.9322,0.9338,0.9338,0.9342,0.9346,0.9287,0.9382,0.9535,0.9552,0.9349,0.9347,0.9346,0,0.9242,0.9283,0.9335,0.9342,0.9343,0.9369,0.9371,0.9376,0.9392,0.9411,0.9421,0.9445,0.9458,0.9478,0.946,0.9422,0.9525,0.947,0.9523,0.9523,0.9547,0.9546,0.9707,0.9555,0.9554,0.9554,0.9554,0,0.9359,0.9408,0.9381,0.9413,0.9468,0.9441,0.9496,0.9493,0.9499,0.9532,0.9496,0.9528,0.9502,0.9531,0.9518,0.9572,0.9578,0.9575,0.9571,0.9579,0.958,0.959,0.9583,0.9558,0.9557,0.9557,0.9556,0,0.9483,0.9467,0.9521,0.9518,0.9519,0.9559,0.9558,0.9589,0.958,0.9621,0.963,0.9617,0.965,0.9634,0.9669,0.966,0.9731,0.9716,0.9728,0.9725,0.9779,0.9775,0.9953,0.9977,0.9808,0.981,0.9811,0,0.956,0.9596,0.9598,0.9617,0.9622,0.9652,0.9668,0.9644,0.9663,0.9677,0.9707,0.9737,0.976,0.9816,0.981,0.9837,0.9825,0.9885,0.9829,0.9836,0.9828,0.9827,0.9832,0.9897,0.9899,0.9901,0.9902,0,0.9698,0.9689,0.9713,0.9736,0.9757,0.9773,0.9787,0.9805,0.9781,0.9805,0.9838,0.9856,0.9892,0.9924,0.9948,0.9952,0.9925,0.992,0.9934,0.9943,0.9949,0.9949,0.9761,0.9916,0.9915,0.9914,0.9913,0.9912,0.9802,0.9834,0.9841,0.987,0.9878,0.9892,0.9921,0.9917,0.9944,0.9971,0.9955,0.9995,1.0006,1.0035,1.0043,1.0075,1.0052,1.0071,1.0077,1.0082,1.0091,0.9943,1.008,1.0079,1.0079,1.0078,1.0078,0,0.9941,0.9943,0.997,0.9991,1.0015,0.9986,1.0,1.0023,1.0058,1.0069,1.0093,1.0133,1.0164,1.0161,1.019,1.0217,1.0205,1.0225,1.0224,1.0226,1.0109,1.0095,1.0234,1.0234,1.0234,1.0234,1.0234,1.0234,1.0016,1.0068,1.006,1.0118,1.012,1.0158,1.0169,1.0183,1.0193,1.0239,1.0264,1.0262,1.0269,1.0298,1.0326,1.0325,1.0338,1.0363,1.0358,1.0249,1.0234,1.0219,1.0206,1.0366,1.0366,1.0472,1.0473,1.0474]},{"header":{"parameterUnit":"m.s-1","parameterCategory":1,"la1":30.2991,"la2":30.254,"lo1":-89.0895,"lo2":-89.0444,"dy":0.0017,"dx":0.0017,"nx":28,"ny":28,"refTime":"2023-05-01T21:00:00:Z","depth":0,"parameterNumber":3,"parameterNumberName":"V-component_of_WINDS"},"data":[0,0,0,0,0,0,0,0,0,0,0,0,0,0,0,0,0,0,0,0,0,0,0,0,0,0,0,0,0,0,0,0,0,0,0,0,0,0,0,0,0,0,0,0,0,0,0,0,0,0,0,0,0,0,0,0,0,0,-2.2513,-2.2513,0,-2.2582,-2.2583,-2.2584,-2.2609,-2.2609,-2.2609,-2.2608,-2.2675,-2.2677,-2.2679,0,0,0,0,0,0,0,0,0,0,0,0,0,-2.2397,-2.2399,-2.2513,-2.2514,-2.2514,-2.2582,-2.2583,-2.2584,-2.2609,-2.2609,-2.2609,-2.2608,-2.2675,-2.2677,-2.2679,0,0,0,0,0,0,0,0,0,0,0,0,0,-2.2455,-2.24,-2.2513,-2.2535,-2.2538,-2.2582,-2.2583,-2.2584,-2.2609,-2.2609,-2.2608,-2.2608,-2.2674,-2.2677,-2.268,-2.2705,0,0,-2.2689,-2.269,0,0,0,0,0,0,0,0,-2.2451,-2.2459,-2.2531,-2.2534,-2.2537,-2.2587,-2.2567,-2.2624,-2.2609,-2.2582,-2.2608,-2.2608,-2.2646,-2.2651,-2.2665,-2.2708,-2.2711,-2.2689,-2.2691,-2.2692,-2.2693,0,0,0,0,0,0,0,-2.2447,-2.2456,-2.254,-2.2532,-2.2536,-2.254,-2.2548,-2.2578,-2.2615,-2.2584,-2.2586,-2.2594,-2.2647,-2.2662,-2.2666,-2.2712,-2.2689,-2.2692,-2.2693,-2.2695,-2.2778,-2.2778,0,0,0,0,0,0,-2.244,-2.2453,-2.2538,-2.2542,-2.2493,-2.2543,-2.2552,-2.2571,-2.2615,-2.2621,-2.2595,-2.2595,-2.2657,-2.2663,-2.2669,-2.2701,-2.2692,-2.2695,-2.2697,-2.2777,-2.2778,-2.2778,0,0,0,0,0,0,-2.2438,-2.2448,-2.2535,-2.2498,-2.251,-2.2545,-2.2567,-2.2573,-2.2587,-2.2622,-2.2629,-2.2603,-2.2657,-2.2665,-2.2696,-2.2703,-2.2696,-2.2699,-2.2777,-2.2778,-2.2778,-2.2765,0,0,0,0,0,0,-2.2434,-2.2447,-2.2458,-2.2498,-2.2511,-2.2562,-2.2567,-2.2574,-2.2593,-2.2594,-2.2632,-2.2638,-2.2657,-2.2691,-2.2699,-2.2707,-2.2701,-2.2776,-2.2777,-2.2778,-2.2765,-2.2765,-2.2765,0,0,0,0,0,-2.243,-2.245,-2.2458,-2.2468,-2.2526,-2.2563,-2.257,-2.2593,-2.2593,-2.2604,-2.2626,-2.2637,-2.2701,-2.2694,-2.2703,-2.2712,-2.2776,-2.2777,-2.2778,-2.2765,-2.2765,-2.2765,0,0,0,0,0,0,-2.2409,-2.2456,-2.2465,-2.25,-2.2527,-2.2567,-2.2581,-2.2593,-2.262,-2.262,-2.2646,-2.2654,-2.2683,-2.2701,-2.2692,-2.2738,-2.2739,-2.2742,-2.2726,-2.2727,-2.2727,-2.2722,-2.2704,0,0,0,0,0,-2.2408,-2.2435,-2.2475,-2.2501,-2.2514,-2.2545,-2.2562,-2.2577,-2.2606,-2.2618,-2.2642,-2.2669,-2.2695,-2.2712,-2.2738,-2.2767,-2.2775,-2.2778,-2.2778,-2.2778,-2.278,-2.2796,-2.2797,-2.2782,-2.2782,-2.2781,0,0,-2.2407,-2.2436,-2.2451,-2.2497,-2.2521,-2.2546,-2.2555,-2.2582,-2.2601,-2.2621,-2.2653,-2.2671,-2.2702,-2.2733,-2.2747,-2.2748,-2.2786,-2.2779,-2.2779,-2.2781,-2.2797,-2.2798,-2.28,-2.2782,-2.2782,-2.2782,0,0,-2.2418,-2.2443,-2.2468,-2.2491,-2.2526,-2.2547,-2.2552,-2.259,-2.2604,-2.2636,-2.2652,-2.2674,-2.2719,-2.274,-2.2757,-2.2775,-2.2785,-2.2782,-2.2783,-2.2798,-2.28,-2.2801,-2.2807,-2.2809,-2.2784,-2.2784,-2.2784,0,-2.2412,-2.2453,-2.2479,-2.2505,-2.2524,-2.2545,-2.2569,-2.259,-2.2631,-2.2643,-2.2644,-2.2701,-2.2723,-2.2758,-2.2762,-2.2775,-2.2782,-2.2778,-2.2798,-2.2799,-2.2801,-2.2807,-2.2809,-2.2784,-2.2784,-2.2784,-2.2784,0,-2.2443,-2.2471,-2.2486,-2.2527,-2.2548,-2.2573,-2.2601,-2.2619,-2.2632,-2.2652,-2.2683,-2.2711,-2.2742,-2.2752,-2.2765,-2.2788,-2.2788,-2.2793,-2.2794,-2.2801,-2.2807,-2.281,-2.2783,-2.2783,-2.2783,-2.2783,0,0,-2.2443,-2.2497,-2.2503,-2.2521,-2.2561,-2.2583,-2.2608,-2.264,-2.2654,-2.2682,-2.2703,-2.274,-2.2745,-2.2764,-2.2779,-2.2792,-2.2804,-2.2796,-2.2797,-2.2796,-2.2831,-2.2827,-2.2829,-2.2811,-2.2811,-2.2812,-2.2828,0,-2.2459,-2.2507,-2.253,-2.2567,-2.2593,-2.2612,-2.2634,-2.266,-2.2679,-2.2702,-2.2722,-2.2748,-2.2753,-2.2764,-2.2778,-2.28,-2.2811,-2.2799,-2.2829,-2.283,-2.2821,-2.2832,-2.2828,-2.2842,-2.2831,-2.2831,-2.2831,0,-2.2484,-2.2513,-2.2553,-2.2589,-2.2601,-2.262,-2.2651,-2.2674,-2.2703,-2.2716,-2.2736,-2.2751,-2.2777,-2.2776,-2.2811,-2.2802,-2.2816,-2.2828,-2.2829,-2.2832,-2.2831,-2.2835,-2.2847,-2.2849,-2.2835,-2.2835,-2.2835,0,-2.2479,-2.2527,-2.2558,-2.2573,-2.2616,-2.2629,-2.2648,-2.2677,-2.2695,-2.2721,-2.2733,-2.2761,-2.2777,-2.2798,-2.2819,-2.2817,-2.2852,-2.2853,-2.2862,-2.2861,-2.2868,-2.2867,-2.2882,-2.2877,-2.2877,-2.2877,-2.2877,0,-2.2494,-2.2518,-2.2556,-2.2575,-2.2601,-2.2627,-2.2652,-2.2671,-2.2697,-2.2718,-2.2736,-2.2755,-2.2783,-2.2805,-2.2822,-2.2848,-2.2854,-2.2864,-2.2868,-2.2863,-2.2861,-2.2872,-2.2871,-2.2878,-2.2878,-2.2878,-2.2877,0,-2.2493,-2.252,-2.2554,-2.2593,-2.2603,-2.2621,-2.2653,-2.2671,-2.269,-2.2717,-2.2725,-2.2755,-2.2782,-2.2806,-2.2841,-2.2852,-2.2878,-2.2884,-2.2869,-2.2871,-2.2879,-2.2877,-2.29,-2.2904,-2.2897,-2.2897,-2.2897,0,-2.2501,-2.252,-2.2561,-2.2577,-2.2596,-2.2622,-2.264,-2.2666,-2.2684,-2.2719,-2.2732,-2.276,-2.2785,-2.2827,-2.2851,-2.2878,-2.2883,-2.2889,-2.2887,-2.2881,-2.2883,-2.2882,-2.2883,-2.2889,-2.2889,-2.2889,-2.2889,0,-2.2512,-2.2525,-2.2552,-2.2583,-2.2605,-2.263,-2.2656,-2.2667,-2.2698,-2.2717,-2.2745,-2.2764,-2.2801,-2.2829,-2.2858,-2.2875,-2.2887,-2.289,-2.2893,-2.2887,-2.2878,-2.2883,-2.2869,-2.2889,-2.2889,-2.2889,-2.2889,-2.2889,-2.2516,-2.2533,-2.2565,-2.2594,-2.2616,-2.264,-2.2658,-2.268,-2.2705,-2.2738,-2.2751,-2.278,-2.2808,-2.2849,-2.2866,-2.2888,-2.289,-2.2894,-2.2896,-2.2896,-2.2895,-2.2875,-2.2893,-2.2893,-2.2893,-2.2893,-2.2893,0,-2.2528,-2.2549,-2.2575,-2.2611,-2.2634,-2.2644,-2.2673,-2.269,-2.2716,-2.2742,-2.2765,-2.2798,-2.2825,-2.2851,-2.2879,-2.2891,-2.2897,-2.2897,-2.2897,-2.29,-2.2892,-2.2887,-2.2892,-2.2892,-2.2892,-2.2892,-2.2892,-2.2892,-2.2536,-2.2566,-2.2582,-2.2622,-2.2643,-2.2673,-2.2688,-2.2709,-2.273,-2.2766,-2.2789,-2.2806,-2.2831,-2.2861,-2.2886,-2.2893,-2.2902,-2.2901,-2.2909,-2.2901,-2.2901,-2.2901,-2.2895,-2.2903,-2.2903,-2.2915,-2.2915,-2.2915]}]]